Weather Roundup
Issued by NWS Chicago, IL

Home | Current Version | Previous Version | Graphics & Text | Print | Product List | Glossary On
Versions: 1 2 3 4 5 6 7 8 9 10 11 12 13 14 15 16 17 18 19 20 21 22 23 24 25 26 27 28 29 30 31 32 33 34 35 36 37 38 39 40 41 42 43 44 45 46 47 48 49 50
000
NZUS59 KLOT 270308
HRRLOT

CHICAGO AREA WEATHER ROUNDUP
NATIONAL WEATHER SERVICE CHICAGO/ROMEOVILLE IL
1000 PM CDT THU MAR 26 2015

NOTE: "FAIR" INDICATES FEW OR NO CLOUDS BELOW 12,000 FEET WITH NO
SIGNIFICANT WEATHER AND/OR OBSTRUCTIONS TO VISIBILITY.

* THESE STATIONS ARE NOT UNDER NWS QUALITY CONTROL. THEY ALSO MAY NOT
  REPORT WEATHER SUCH AS PRECIPITATION OR FOG.

ILZ005-006-012>014-019>023-270400-
NORTHEAST ILLINOIS

CITY           SKY/WX    TMP DP  RH WIND       PRES   REMARKS
OHARE          CLOUDY    34  22  61 N14       30.05R WCI  25
MIDWAY         FLURRIES  38  20  48 NW10      30.05R
AURORA         CLOUDY    34  22  61 NW3       30.06R
LANSING*       CLOUDY    36  24  62 NE7       30.05S
JOLIET*        MOCLDY    37  23  57 N6        30.06S
WAUKEGAN       CLOUDY    31  18  58 NW9       30.06R WCI  23
DUPAGE AIRPORT CLOUDY    34  21  59 NW7       30.05R WCI  28
WHEELING       CLOUDY    33  19  56 N14G20    30.08R WCI  23
KANKAKEE*      CLOUDY    35  26  69 NW3       30.05S
MORRIS*        CLOUDY    33  25  72 N3        30.06R
LEWIS AIRPORT* CLOUDY    35  21  56 N8        30.06R WCI  28
NORTHERLY IS     N/A     34  26  73 N15         N/A  WCI  24
$$

WIZ051-052-058>065-066-070>072-270400-
SOUTHEAST WISCONSIN

CITY           SKY/WX    TMP DP  RH WIND       PRES   REMARKS
MILWAUKEE      CLOUDY    31  14  49 N10       30.06R WCI  22
KENOSHA*       CLOUDY    31  19  61 N7        30.06R WCI  24
RACINE*        CLOUDY    31  16  54 N10       30.07R WCI  22
BURLINGTON     CLOUDY    28  16  60 N6        30.07R WCI  22
WAUKESHA       CLOUDY    28  19  69 NW10G16   30.08R WCI  19
WEST BEND      CLOUDY    30  14  51 NW12      30.07R WCI  21
$$

INZ001>003-010>013-019-020-270400-
NORTHWEST INDIANA

CITY           SKY/WX    TMP DP  RH WIND       PRES   REMARKS
GARY*          CLOUDY    37  23  56 NE14      30.05S
MICHIGAN CITY* NOT AVBL
RENSSELAER*    NOT AVBL
VALPARAISO     CLOUDY    33  24  69 N6        30.04S WCI  28
$$

LMZ740>746-270400-
SOUTHERN LAKE MICHIGAN

STATION/POSITION TIME  SKY/WX   TEMP WIND        PRES    VSBY
                                AIR  DIR/SP/G
                 (UTC)          (F)  (DEG/KT/KT) (MB)    (MI)
HARRISON CRIB    0200            35   10/ 15/ 17   N/A
BURNHAM HARBOR   0300            34   10/ 14/ 15   N/A
CALUMET HARBOR   0200            36  350/  9/ 12 1016.2R
BURNS HARBOR     0200            35   20/ 10/ 12 1017.6R
MICHIGAN CITY    0200            33  350/ 12/ 12   N/A
$$

ABBREVIATIONS USED IN REMARKS
   TC - TEMPERATURE IN CELSIUS
  WCI - WIND CHILL INDEX
   HX - HEAT INDEX
  VSB - VISIBILITY
$$



USA.gov is the U.S. government's official web portal to all federal, state and local government web resources and services.